This demonstration page uses our WeatherBlox Daily Observations layout. Learn more.

Left ArrowRight Arrow

40.92945, -100.16068

Hourly Observations for February 16, 2016

Temp ( °F °C ) Dew Point ( °F °C ) Humidity (%) Winds ( mph kmh ) Pressure ( in mb ) Visibility ( mi km ) Precip ( " mm )
12:15 am 00:15 Cloudy 40 4.5 35 1.7 82 82 NW 14 22 29.8 1009 10 16.0934 N/A
12:35 am 00:35 Cloudy 40 4.7 35 1.8 82 82 WNW 14 22 29.83 1010 10 16.0934 N/A
12:55 am 00:55 Cloudy 42 5.3 36 2 80 80 WNW 14 22 29.83 1010 10 16.0934 N/A
1:15 am 01:15 Cloudy 40 4.5 35 1.6 82 82 WNW 16 26 29.88 1012 10 16.0934 N/A
1:35 am 01:35 Mostly Cloudy 39 4.1 35 1.5 83 83 NW 14 22 29.88 1012 10 16.0934 N/A
1:55 am 01:55 Partly Cloudy 40 4.4 35 1.4 81 81 NW 14 22 29.88 1012 10 16.0934 N/A
2:15 am 02:15 Partly Cloudy 39 4 34 1.1 82 82 NW 15 24 29.88 1012 10 16.0934 N/A
2:35 am 02:35 Mostly Cloudy 40 4.5 34 1.2 79 79 NW 22 35 29.91 1013 10 16.0934 N/A
2:55 am 02:55 Partly Cloudy 40 4.3 33 0.6 77 77 NNW 20 31 29.91 1013 10 16.0934 N/A
3:15 am 03:15 Clear 39 4 31 -0.3 74 74 NNW 25 41 29.94 1014 10 16.0934 N/A
3:35 am 03:35 Clear 39 3.9 31 -0.5 73 73 NNW 23 37 29.97 1015 10 16.0934 N/A
3:55 am 03:55 Clear 38 3.3 31 -0.5 76 76 NNW 21 33 29.97 1015 10 16.0934 N/A
4:15 am 04:15 Partly Cloudy 37 2.8 31 -0.3 80 80 NNW 17 28 29.97 1015 10 16.0934 N/A
4:35 am 04:35 Mostly Cloudy 37 2.7 31 -0.7 79 79 NW 16 26 29.97 1015 10 16.0934 N/A
4:55 am 04:55 Partly Cloudy 37 2.5 30 -1.3 76 76 NW 18 30 30.03 1017 10 16.0934 N/A
5:15 am 05:15 Partly Cloudy 37 2.5 29 -1.5 75 75 NNW 18 30 30.06 1018 10 16.0934 N/A
5:35 am 05:35 Partly Cloudy 36 2.1 29 -1.5 77 77 NW 16 26 30.06 1018 10 16.0934 N/A
5:55 am 05:55 Clear 36 2 29 -1.6 77 77 NW 16 26 30.06 1018 10 16.0934 N/A
6:15 am 06:15 Clear 36 2 29 -1.6 77 77 NNW 16 26 30.06 1018 10 16.0934 N/A
6:35 am 06:35 Partly Cloudy 35 1.5 29 -1.6 80 80 NNW 13 20 30.06 1018 10 16.0934 N/A
6:55 am 06:55 Clear 34 1.2 29 -1.9 80 80 NNW 13 20 30.09 1019 10 16.0934 N/A
7:15 am 07:15 Clear 33 0.5 28 -2.1 83 83 WNW 9 15 30.09 1019 10 16.0934 N/A
7:35 am 07:35 Sunny 32 -0.2 27 -2.6 84 84 NW 7 11 30.12 1020 10 16.0934 N/A
7:55 am 07:55 Sunny 32 -0.2 28 -2.4 85 85 NNW 8 13 30.12 1020 10 16.0934 N/A
8:15 am 08:15 Sunny 33 0.5 28 -2.1 83 83 NW 9 15 30.09 1019 10 16.0934 N/A
8:35 am 08:35 Sunny 34 1 29 -1.8 82 82 WNW 10 17 30.12 1020 10 16.0934 N/A
8:55 am 08:55 Sunny 35 1.6 29 -1.4 81 81 WNW 10 17 30.12 1020 10 16.0934 N/A
9:15 am 09:15 Sunny 36 2.1 30 -1.2 79 79 WNW 10 17 30.12 1020 10 16.0934 N/A
9:35 am 09:35 Sunny 37 3 30 -0.9 76 76 NW 13 20 30.12 1020 10 16.0934 N/A
9:55 am 09:55 Sunny 39 3.7 30 -1 72 72 NNW 15 24 30.09 1019 10 16.0934 N/A
10:15 am 10:15 Sunny 40 4.4 31 -0.8 69 69 NNW 15 24 30.09 1019 10 16.0934 N/A
10:35 am 10:35 Sunny 41 4.9 31 -0.8 67 67 NNW 16 26 30.09 1019 10 16.0934 N/A
10:55 am 10:55 Sunny 42 5.4 31 -0.6 66 66 NW 13 20 30.09 1019 10 16.0934 N/A
11:15 am 11:15 Sunny 42 5.7 30 -0.9 63 63 NNW 12 19 30.09 1019 10 16.0934 N/A
11:35 am 11:35 Sunny 43 6 29 -1.8 58 58 NNW 13 20 30.09 1019 10 16.0934 N/A
11:55 am 11:55 Sunny 44 6.7 29 -1.4 57 57 N 13 20 30.09 1019 10 16.0934 N/A
12:15 pm 12:15 Sunny 44 6.6 29 -1.6 56 56 NNW 14 22 30.09 1019 10 16.0934 N/A
12:35 pm 12:35 Sunny 44 6.8 28 -2.1 53 53 NNW 12 19 30.09 1019 10 16.0934 N/A
12:55 pm 12:55 Sunny 45 7.1 28 -2.3 52 52 NNW 12 19 30.09 1019 10 16.0934 N/A
1:15 pm 13:15 Sunny 46 7.5 28 -2.4 50 50 NNW 9 15 30.06 1018 10 16.0934 N/A
1:35 pm 13:35 Partly Cloudy 46 7.6 27 -3 47 47 NNW 9 15 30.06 1018 10 16.0934 N/A
1:55 pm 13:55 Partly Cloudy 46 7.7 27 -2.7 48 48 NW 8 13 30.03 1017 10 16.0934 N/A
2:15 pm 14:15 Sunny 46 7.7 26 -3.1 47 47 WNW 8 13 30.03 1017 10 16.0934 N/A
2:35 pm 14:35 Partly Cloudy 46 7.8 27 -3 47 47 W 7 11 30.03 1017 10 16.0934 N/A
2:55 pm 14:55 Partly Cloudy 46 7.9 26 -3.6 44 44 WNW 7 11 30.03 1017 10 16.0934 N/A
3:15 pm 15:15 Mostly Cloudy 46 7.7 26 -3.4 46 46 NW 5 7 30.03 1017 10 16.0934 N/A
3:35 pm 15:35 Partly Cloudy 46 8 26 -3.6 44 44 N N/A 30.03 1017 10 16.0934 N/A
3:55 pm 15:55 Partly Cloudy 46 8 25 -3.8 43 43 N N/A 30 1016 10 16.0934 N/A
4:15 pm 16:15 Partly Cloudy 47 8.5 25 -3.7 42 42 N N/A 30 1016 10 16.0934 N/A
4:35 pm 16:35 Partly Cloudy 47 8.4 27 -2.9 45 45 SSW 6 9 30 1016 10 16.0934 N/A
4:55 pm 16:55 Sunny 47 8.5 29 -1.9 48 48 SSW 6 9 30 1016 10 16.0934 N/A
5:15 pm 17:15 Sunny 46 7.7 29 -1.5 53 53 SSW 5 7 30 1016 10 16.0934 N/A
5:35 pm 17:35 Sunny 44 6.7 31 -0.7 60 60 SSW 6 9 30 1016 10 16.0934 N/A
5:55 pm 17:55 Sunny 43 6 30 -0.9 62 62 SSW 5 7 30.03 1017 10 16.0934 N/A
6:15 pm 18:15 Clear 40 4.3 29 -1.6 66 66 S 7 11 30.03 1017 10 16.0934 N/A
6:35 pm 18:35 Clear 38 3.5 28 -2 68 68 S 7 11 30.03 1017 10 16.0934 N/A
6:55 pm 18:55 Mostly Cloudy 38 3.6 29 -1.9 68 68 SSW 6 9 30.03 1017 10 16.0934 N/A
7:15 pm 19:15 Mostly Cloudy 38 3.4 29 -1.8 69 69 S 5 7 30.06 1018 10 16.0934 N/A
7:35 pm 19:35 Cloudy 38 3.5 29 -1.5 70 70 SSE 5 7 30.03 1017 10 16.0934 N/A
7:55 pm 19:55 Partly Cloudy 38 3.6 29 -1.7 69 69 SSE 6 9 30.03 1017 10 16.0934 N/A
8:15 pm 20:15 Clear 36 2 29 -1.9 76 76 S 7 11 30.06 1018 10 16.0934 N/A
8:35 pm 20:35 Clear 37 2.9 29 -1.5 73 73 S 5 7 30.06 1018 10 16.0934 N/A
8:55 pm 20:55 Mostly Cloudy 35 1.6 29 -1.6 80 80 S 6 9 30.06 1018 10 16.0934 N/A
9:15 pm 21:15 Mostly Cloudy 36 2.2 29 -1.4 77 77 S 8 13 30.06 1018 10 16.0934 N/A
9:35 pm 21:35 Cloudy 38 3.1 30 -1.1 74 74 S 5 7 30.06 1018 10 16.0934 N/A
9:55 pm 21:55 Cloudy 38 3.5 30 -1 73 73 S 10 17 30.03 1017 10 16.0934 N/A
10:15 pm 22:15 Cloudy 38 3.6 30 -1 72 72 S 7 11 30.03 1017 10 16.0934 N/A
10:35 pm 22:35 Cloudy 39 3.9 30 -1 71 71 S 8 13 30.03 1017 10 16.0934 N/A
10:55 pm 22:55 Mostly Cloudy 40 4.5 30 -1.1 67 67 E 3 6 30.03 1017 10 16.0934 N/A
11:15 pm 23:15 Mostly Cloudy 39 4 30 -1.3 69 69 S 6 9 30.03 1017 10 16.0934 N/A
11:35 pm 23:35 Partly Cloudy 40 4.6 29 -1.6 64 64 S 12 19 30.03 1017 10 16.0934 N/A
11:55 pm 23:55 Partly Cloudy 40 4.2 29 -1.8 65 65 SSW 10 17 30 1016 10 16.0934 N/A

Powered by AerisWeather